FW4559 Weather Reports


time (UTC)temp
F
wind
direction
speed
knots
gust
knots
rain 1hr
in
rain 24hr
in
rain mn
in
humidity
%
barometer
mb
20260902194506 90 236 0.0 3.5 0.00 0.00 0.00 49 1017.3
20260902194005 91 212 0.0 0.9 0.00 0.00 0.00 48 1017.5
20260902193504 91 114 0.0 2.6 0.00 0.00 0.00 49 1017.6
20260902193003 90 118 0.9 3.5 0.00 0.00 0.00 49 1017.6
20260902192503 91 196 0.9 3.5 0.00 0.00 0.00 46 1017.6
20260902192006 93 187 0.0 0.9 0.00 0.00 0.00 45 1017.7
20260902191501 93 238 0.0 0.9 0.00 0.00 0.00 44 1017.7
20260902191100 92 240 0.0 2.6 0.00 0.00 0.00 45 1017.9
20260902190558 91 165 0.0 2.6 0.00 0.00 0.00 49 1017.9
20260902190057 91 129 0.0 4.3 0.00 0.00 0.00 51 1017.8
20260902185555 90 203 0.9 4.3 0.00 0.00 0.00 48 1018.0
20260902185056 90 160 0.0 1.7 0.00 0.00 0.00 51 1018.1
20260902184557 89 201 0.0 1.7 0.00 0.00 0.00 48 1018.2
20260902184057 89 265 0.0 1.7 0.00 0.00 0.00 50 1018.2
20260902183553 88 347 0.0 3.5 0.00 0.00 0.00 53 1018.2
20260902183053 88 32 0.9 3.5 0.00 0.00 0.00 48 1018.2
20260902182554 88 219 0.0 2.6 0.00 0.00 0.00 51 1018.2
20260902182052 88 17 0.0 3.5 0.00 0.00 0.00 49 1018.3
20260902181555 89 238 0.0 3.5 0.00 0.00 0.00 47 1018.2
20260902181051 91 343 0.0 2.6 0.00 0.00 0.00 46 1018.3
20260902180550 90 165 0.0 2.6 0.00 0.00 0.00 49 1018.2
20260902180049 90 139 0.0 2.6 0.00 0.00 0.00 51 1018.2
20260902175549 89 225 0.0 2.6 0.00 0.00 0.00 52 1018.3
20260902175049 89 217 0.0 2.6 0.00 0.00 0.00 49 1018.4
20260902174548 88 224 0.0 3.5 0.00 0.00 0.00 50 1018.4
20260902174045 88 221 1.7 3.5 0.00 0.00 0.00 49 1018.6
20260902173545 88 212 0.0 3.5 0.00 0.00 0.00 52 1018.7
20260902173047 86 228 0.0 6.1 0.00 0.00 0.00 53 1018.7
20260902172544 87 153 2.6 6.1 0.00 0.00 0.00 49 1018.8
20260902172044 88 200 0.9 4.3 0.00 0.00 0.00 50 1018.8
20260902171559 87 115 0.0 2.6 0.00 0.00 0.00 51 1018.8
20260902171043 88 98 0.9 2.6 0.00 0.00 0.00 47 1019.0
20260902170542 88 162 0.0 1.7 0.00 0.00 0.00 49 1019.1
20260902170042 87 122 0.0 1.7 0.00 0.00 0.00 52 1019.2
20260902165542 85 98 0.0 2.6 0.00 0.00 0.00 56 1019.2
20260902165042 84 98 0.0 4.3 0.00 0.00 0.00 56 1019.2
20260902164542 84 14 1.7 4.3 0.00 0.00 0.00 55 1019.2
20260902164045 85 13 0.9 2.6 0.00 0.00 0.00 56 1019.3
20260902163540 85 51 0.0 2.6 0.00 0.00 0.00 55 1019.3
20260902163040 85 120 0.0 2.6 0.00 0.00 0.00 54 1019.3
20260902162539 85 84 0.0 2.6 0.00 0.00 0.00 54 1019.3
20260902162039 86 356 0.0 2.6 0.00 0.00 0.00 53 1019.3
20260902161540 87 20 0.9 2.6 0.00 0.00 0.00 50 1019.4
20260902161038 88 113 0.0 1.7 0.00 0.00 0.00 49 1019.4
20260902160538 88 134 0.0 0.0 0.00 0.00 0.00 52 1019.4
20260902160047 87 134 0.0 0.9 0.00 0.00 0.00 52 1019.4
20260902155537 86 149 0.0 0.9 0.00 0.00 0.00 54 1019.5
20260902155040 84 112 0.0 1.7 0.00 0.00 0.00 53 1019.4
20260902154536 83 86 0.0 1.7 0.00 0.00 0.00 54 1019.5
20260902154036 84 65 0.0 1.7 0.00 0.00 0.00 52 1019.5
20260902153539 84 90 0.0 1.7 0.00 0.00 0.00 55 1019.5
20260902153036 84 136 0.0 1.7 0.00 0.00 0.00 50 1019.5
20260902152536 86 95 0.0 1.7 0.00 0.00 0.00 52 1019.5
20260902152037 88 158 0.0 1.7 0.00 0.00 0.00 50 1019.5
20260902151534 88 158 0.0 0.0 0.00 0.00 0.00 55 1019.4
20260902151036 87 158 0.0 0.9 0.00 0.00 0.00 55 1019.4
20260902150531 87 158 0.0 0.9 0.00 0.00 0.00 56 1019.3
20260902150031 86 158 0.0 0.0 0.00 0.00 0.00 57 1019.3
20260902145530 86 176 0.0 0.0 0.00 0.00 0.00 56 1019.3
20260902145031 86 176 0.0 0.0 0.00 0.00 0.00 59 1019.4
20260902144528 86 176 0.0 0.0 0.00 0.00 0.00 60 1019.3
20260902144026 85 167 0.0 1.7 0.00 0.00 0.00 60 1019.4
20260902143525 84 167 0.0 1.7 0.00 0.00 0.00 64 1019.4
20260902143023 83 198 0.0 0.0 0.00 0.00 0.00 68 1019.3
20260902142522 83 198 0.0 0.9 0.00 0.00 0.00 65 1019.3
20260902142022 83 231 0.0 0.9 0.00 0.00 0.00 68 1019.2
20260902141521 83 169 0.0 0.0 0.00 0.00 0.00 70 1019.2
20260902141020 81 169 0.0 0.9 0.00 0.00 0.00 73 1019.3
20260902140520 81 169 0.0 0.9 0.00 0.00 0.00 72 1019.2
20260902140027 81 204 0.0 0.0 0.00 0.00 0.00 74 1019.3
20260902135516 80 204 0.0 0.0 0.00 0.00 0.00 74 1019.3
20260902135017 80 204 0.0 0.0 0.00 0.00 0.00 75 1019.4
20260902134515 80 204 0.0 0.0 0.00 0.00 0.00 76 1019.4
20260902134013 79 204 0.0 0.0 0.00 0.00 0.00 78 1019.4
20260902133514 78 204 0.0 0.0 0.00 0.00 0.00 80 1019.5
20260902133009 77 204 0.0 0.0 0.00 0.00 0.00 82 1019.5
20260902132511 76 204 0.0 0.0 0.00 0.00 0.00 85 1019.6
20260902132007 75 204 0.0 0.0 0.00 0.00 0.00 87 1019.7
20260902131505 74 204 0.0 0.0 0.00 0.00 0.00 90 1019.7
20260902131005 72 204 0.0 0.0 0.00 0.00 0.00 92 1019.7
20260902130503 72 204 0.0 0.0 0.00 0.00 0.00 95 1019.7
20260902130002 71 204 0.0 0.0 0.00 0.00 0.00 96 1019.8
20260902125501 71 204 0.0 0.0 0.00 0.00 0.00 95 1019.9
20260902125100 70 204 0.0 0.0 0.00 0.00 0.00 96 1019.8
20260902124559 69 204 0.0 0.0 0.00 0.00 0.00 96 1019.8
20260902124056 68 204 0.0 0.0 0.00 0.00 0.00 96 1019.8
20260902123556 67 204 0.0 0.0 0.00 0.00 0.00 96 1019.9
20260902123107 65 204 0.0 0.0 0.00 0.00 0.00 96 1019.9
20260902122557 64 204 0.0 0.0 0.00 0.00 0.00 96 1019.8
20260902122053 64 204 0.0 0.0 0.00 0.00 0.00 96 1019.8
20260902121554 63 204 0.0 0.0 0.00 0.00 0.00 96 1019.8
20260902121054 63 204 0.0 0.0 0.00 0.00 0.00 96 1019.8
20260902120553 63 204 0.0 0.0 0.00 0.00 0.00 96 1019.8
20260902120054 62 204 0.0 0.0 0.00 0.00 0.00 96 1019.7
20260902115552 62 204 0.0 0.0 0.00 0.00 0.00 96 1019.7
20260902115053 62 204 0.0 0.0 0.00 0.00 0.00 96 1019.6
20260902114554 61 204 0.0 0.0 0.00 0.00 0.00 96 1019.6
20260902114051 61 204 0.0 0.0 0.00 0.00 0.00 96 1019.6
20260902113550 61 204 0.0 0.0 0.00 0.00 0.00 96 1019.6
20260902113050 61 204 0.0 0.0 0.00 0.00 0.00 96 1019.6
20260902112550 61 204 0.0 0.0 0.00 0.00 0.00 96 1019.4
20260902112050 61 204 0.0 0.0 0.00 0.00 0.00 96 1019.4
20260902111551 61 204 0.0 0.0 0.00 0.00 0.00 96 1019.4
20260902111047 61 204 0.0 0.0 0.00 0.00 0.00 96 1019.3
20260902110546 61 204 0.0 0.0 0.00 0.00 0.00 96 1019.3
20260902110059 61 204 0.0 0.0 0.00 0.00 0.00 96 1019.3
20260902105545 61 204 0.0 0.0 0.00 0.00 0.00 96 1019.2
20260902105045 61 204 0.0 0.0 0.00 0.00 0.00 96 1019.1
20260902104545 61 204 0.0 0.0 0.00 0.00 0.00 96 1019.1
20260902104044 61 204 0.0 0.0 0.00 0.00 0.00 96 1019.1
20260902103544 61 204 0.0 0.0 0.00 0.00 0.00 96 1019.1
20260902103044 62 204 0.0 0.0 0.00 0.00 0.00 96 1019.1
20260902102547 62 204 0.0 0.0 0.00 0.00 0.00 96 1019.2
20260902102043 62 204 0.0 0.0 0.00 0.00 0.00 96 1019.2
20260902101542 62 204 0.0 0.0 0.00 0.00 0.00 96 1019.2
20260902101041 62 204 0.0 0.0 0.00 0.00 0.00 96 1019.1
20260902100546 62 204 0.0 0.0 0.00 0.00 0.00 96 1019.1
20260902100040 62 204 0.0 0.0 0.00 0.00 0.00 96 1019.1
20260902095546 62 204 0.0 0.0 0.00 0.00 0.00 96 1019.1
20260902095039 62 204 0.0 0.0 0.00 0.00 0.00 96 1019.1
20260902094544 62 204 0.0 0.0 0.00 0.00 0.00 96 1019.0
20260902094039 62 204 0.0 0.0 0.00 0.00 0.00 96 1018.9
20260902093539 62 204 0.0 0.0 0.00 0.00 0.00 96 1018.9
20260902093042 62 204 0.0 0.0 0.00 0.00 0.00 96 1019.0
20260902092540 62 204 0.0 0.0 0.00 0.00 0.00 96 1018.9
20260902092042 62 204 0.0 0.0 0.00 0.00 0.00 96 1018.9
20260902091539 63 204 0.0 0.0 0.00 0.00 0.00 96 1018.9
20260902091038 63 204 0.0 0.0 0.00 0.00 0.00 96 1018.7
20260902090538 63 204 0.0 0.0 0.00 0.00 0.00 96 1018.8
20260902090139 63 204 0.0 0.0 0.00 0.00 0.00 96 1018.9
20260902085536 63 204 0.0 0.0 0.00 0.01 0.00 96 1018.9
20260902085041 62 204 0.0 0.0 0.00 0.01 0.00 96 1018.9
20260902084542 62 204 0.0 0.0 0.00 0.01 0.00 96 1018.9
20260902084035 62 204 0.0 0.0 0.00 0.01 0.00 96 1018.8
20260902083538 62 204 0.0 0.0 0.00 0.01 0.00 96 1018.9
20260902083035 63 204 0.0 0.0 0.00 0.01 0.00 96 1018.9
20260902082535 63 204 0.0 0.0 0.00 0.01 0.00 96 1018.9
20260902082035 63 204 0.0 0.0 0.00 0.01 0.00 96 1018.8
20260902081536 63 204 0.0 0.0 0.00 0.01 0.00 96 1018.8
20260902081034 63 204 0.0 0.0 0.00 0.01 0.00 96 1018.9
20260902080533 63 204 0.0 0.0 0.00 0.01 0.00 96 1018.9
20260902080037 63 204 0.0 0.0 0.00 0.01 0.00 96 1018.8
20260902075537 63 204 0.0 0.0 0.00 0.01 0.00 96 1018.8
20260902075032 63 204 0.0 0.0 0.00 0.01 0.00 96 1018.8
20260902074532 63 204 0.0 0.0 0.00 0.01 0.00 96 1018.9
20260902074032 63 204 0.0 0.0 0.00 0.01 0.00 96 1018.7
20260902073532 63 204 0.0 0.0 0.00 0.01 0.00 96 1018.6
20260902073034 64 204 0.0 0.0 0.00 0.01 0.00 96 1018.5
20260902072531 63 204 0.0 0.0 0.00 0.01 0.00 96 1018.6
20260902072031 63 204 0.0 0.0 0.00 0.01 0.00 96 1018.6
20260902071536 64 204 0.0 0.0 0.00 0.01 0.00 96 1018.6
20260902071033 64 204 0.0 0.0 0.00 0.01 0.00 96 1018.7
20260902070528 64 204 0.0 0.0 0.00 0.01 0.00 96 1018.7
20260902070028 64 204 0.0 0.0 0.00 0.01 0.00 96 1018.7
20260902065529 64 204 0.0 0.0 0.00 0.01 0.00 96 1018.6
20260902065030 64 204 0.0 0.0 0.00 0.01 0.00 96 1018.7
20260902064527 64 204 0.0 0.0 0.00 0.01 0.00 96 1018.7
20260902064027 64 204 0.0 0.0 0.00 0.01 0.00 96 1018.6
20260902063527 64 204 0.0 0.0 0.00 0.01 0.00 96 1018.6
20260902063033 64 204 0.0 0.0 0.00 0.01 0.00 96 1018.6
20260902062527 64 204 0.0 0.0 0.00 0.01 0.00 96 1018.7
20260902062026 64 204 0.0 0.0 0.00 0.01 0.00 96 1018.6
20260902061542 64 204 0.0 0.0 0.00 0.01 0.00 96 1018.7
20260902061026 64 204 0.0 0.0 0.00 0.01 0.00 96 1018.8
20260902060525 64 204 0.0 0.0 0.00 0.01 0.00 96 1018.8
20260902060033 64 204 0.0 0.0 0.00 0.01 0.00 96 1018.7
20260902055524 64 204 0.0 0.0 0.00 0.01 0.00 96 1018.8
20260902055024 64 204 0.0 0.0 0.00 0.01 0.00 96 1018.7
20260902054539 64 204 0.0 0.0 0.00 0.01 0.00 96 1018.7
20260902054023 64 204 0.0 0.0 0.00 0.01 0.00 96 1018.6
20260902053523 64 204 0.0 0.0 0.00 0.01 0.00 96 1018.5
20260902053023 64 204 0.0 0.0 0.00 0.01 0.00 96 1018.7
20260902052521 65 204 0.0 0.0 0.00 0.01 0.00 96 1018.7
20260902052022 65 204 0.0 0.0 0.00 0.01 0.00 96 1018.6
20260902051521 65 204 0.0 0.0 0.00 0.01 0.00 96 1018.5
20260902051019 65 204 0.0 0.0 0.00 0.01 0.00 96 1018.6
20260902050519 65 204 0.0 0.0 0.00 0.01 0.00 96 1018.6
20260902050019 65 204 0.0 0.0 0.00 0.01 0.00 95 1018.6
20260902045518 65 204 0.0 0.0 0.00 0.01 0.00 95 1018.5
20260902045019 65 204 0.0 0.0 0.00 0.01 0.00 95 1018.4
20260902044518 65 204 0.0 0.0 0.00 0.01 0.00 95 1018.6
20260902044017 65 204 0.0 0.0 0.00 0.01 0.00 95 1018.6
20260902043515 65 204 0.0 0.0 0.00 0.01 0.00 95 1018.6
20260902043017 65 204 0.0 0.0 0.00 0.01 0.00 95 1018.6
20260902042516 65 204 0.0 0.0 0.00 0.01 0.00 95 1018.7
20260902042015 66 204 0.0 0.0 0.00 0.01 0.00 95 1018.6
20260902041513 66 204 0.0 0.0 0.00 0.01 0.00 95 1018.6
20260902041014 66 204 0.0 0.0 0.00 0.01 0.00 95 1018.4
20260902040511 66 204 0.0 0.0 0.00 0.01 0.00 95 1018.6
20260902040010 66 204 0.0 0.0 0.00 0.01 0.00 95 1018.6
20260902035510 66 204 0.0 0.0 0.00 0.01 0.01 95 1018.5
20260902035014 66 204 0.0 0.0 0.00 0.01 0.01 95 1018.6
20260902034510 66 204 0.0 0.0 0.00 0.01 0.01 95 1018.5
20260902034010 66 204 0.0 0.0 0.00 0.01 0.01 95 1018.6
20260902033509 66 204 0.0 0.0 0.00 0.01 0.01 95 1018.5
20260902033012 66 204 0.0 0.0 0.00 0.01 0.01 95 1018.6
20260902032512 66 204 0.0 0.0 0.00 0.01 0.01 95 1018.5
20260902032009 66 108 0.0 0.0 0.00 0.01 0.01 95 1018.6
20260902031509 66 108 0.0 0.0 0.00 0.01 0.01 94 1018.6
20260902031008 67 108 0.0 0.0 0.00 0.01 0.01 94 1018.8
20260902030508 67 108 0.0 0.0 0.00 0.01 0.01 94 1018.7
20260902030008 67 108 0.0 0.0 0.00 0.01 0.01 94 1018.7
20260902025508 67 108 0.0 0.0 0.00 0.01 0.01 94 1018.7
20260902025008 67 108 0.0 0.0 0.00 0.01 0.01 94 1018.6
20260902024507 67 108 0.0 0.0 0.00 0.01 0.01 94 1018.7
20260902024009 67 108 0.0 0.0 0.00 0.01 0.01 93 1018.6
20260902023509 67 108 0.0 0.0 0.00 0.01 0.01 93 1018.6
20260902023007 68 108 0.0 0.0 0.00 0.01 0.01 93 1018.6
20260902022507 68 108 0.0 0.0 0.00 0.01 0.01 93 1018.5
20260902022006 68 108 0.0 0.0 0.00 0.01 0.01 93 1018.5
20260902021514 68 108 0.0 0.0 0.00 0.01 0.01 93 1018.4
20260902021005 68 108 0.0 0.0 0.00 0.01 0.01 93 1018.3
20260902020505 69 109 0.0 0.9 0.00 0.01 0.01 93 1018.2
20260902020003 69 108 0.0 0.9 0.00 0.01 0.01 93 1018.2
20260902015503 69 134 0.0 0.9 0.00 0.01 0.01 93 1018.3
20260902015003 69 109 0.0 0.9 0.00 0.01 0.01 92 1018.2
20260902014507 69 109 0.0 0.0 0.00 0.01 0.01 92 1018.1
20260902014003 69 109 0.0 0.0 0.00 0.01 0.01 92 1018.1
20260902013503 69 109 0.0 0.0 0.00 0.01 0.01 92 1018.0
20260902013003 69 109 0.0 0.0 0.00 0.01 0.01 92 1018.0
20260902012502 70 109 0.0 0.9 0.00 0.01 0.01 91 1017.9
20260902012002 70 109 0.0 0.9 0.00 0.01 0.01 91 1018.1
20260902011502 70 109 0.0 0.0 0.00 0.01 0.01 91 1018.2
20260902011001 70 5 0.0 0.0 0.00 0.01 0.01 90 1017.9
20260902010502 70 5 0.0 0.0 0.00 0.01 0.01 90 1017.9
20260902010001 71 6 0.0 0.0 0.00 0.01 0.01 90 1017.8
20260902005502 71 6 0.0 0.0 0.00 0.01 0.01 89 1017.7
20260902005001 71 5 0.0 0.0 0.00 0.01 0.01 89 1017.7
20260902004503 71 6 0.0 0.0 0.00 0.01 0.01 89 1017.6
20260902004100 72 6 0.0 0.0 0.00 0.01 0.01 88 1017.4
20260902003559 72 6 0.0 0.0 0.00 0.01 0.01 88 1017.3
20260902003100 72 6 0.0 0.0 0.00 0.01 0.01 87 1017.4
20260902002559 73 6 0.0 0.0 0.00 0.01 0.01 86 1017.4
20260902002059 73 6 0.0 0.0 0.00 0.01 0.01 85 1017.5
20260902001558 74 5 0.0 0.0 0.00 0.01 0.01 84 1017.6
20260902001102 74 6 0.0 0.0 0.00 0.01 0.01 83 1017.6
20260902000557 75 6 0.0 0.0 0.00 0.01 0.01 83 1017.6
20260902000057 75 5 0.0 0.0 0.00 0.01 0.01 81 1017.7
20260901235601 76 6 0.0 0.0 0.00 0.01 0.01 80 1017.7
20260901235057 77 6 0.0 0.0 0.00 0.01 0.01 79 1017.7
20260901234606 77 5 0.0 0.0 0.00 0.01 0.01 77 1017.7
20260901234057 78 6 0.0 0.0 0.00 0.01 0.01 77 1017.7
20260901233557 78 6 0.0 0.0 0.00 0.01 0.01 76 1017.8
20260901233103 78 6 0.0 0.0 0.00 0.01 0.01 75 1017.8
20260901232559 79 6 0.0 0.0 0.00 0.01 0.01 75 1017.9
20260901232056 79 6 0.0 0.9 0.00 0.01 0.01 73 1017.7
20260901231559 79 6 0.0 0.9 0.00 0.01 0.01 72 1017.7
20260901231055 79 5 0.0 1.7 0.00 0.01 0.01 69 1017.8
20260901230555 79 19 0.0 1.7 0.00 0.01 0.01 69 1017.9
20260901230057 80 335 0.0 1.7 0.00 0.01 0.01 69 1018.0
20260901225556 80 4 0.0 2.6 0.00 0.02 0.01 68 1017.9
20260901225055 80 346 0.0 3.5 0.00 0.02 0.01 68 1017.9
20260901224557 80 349 0.9 3.5 0.00 0.02 0.01 67 1017.9
20260901224055 80 18 0.0 2.6 0.00 0.02 0.01 68 1017.9
20260901223555 80 39 0.0 3.5 0.00 0.02 0.01 67 1017.8
20260901223055 80 349 0.9 4.3 0.00 0.02 0.01 66 1017.8
20260901222555 81 23 0.9 2.6 0.00 0.02 0.01 65 1017.8
20260901222054 81 19 0.0 4.3 0.00 0.02 0.01 66 1017.8
20260901221617 82 335 0.9 4.3 0.00 0.02 0.01 64 1017.7
20260901221054 82 15 0.9 3.5 0.00 0.02 0.01 63 1017.7
20260901220553 83 11 0.0 4.3 0.00 0.02 0.01 64 1017.7
20260901220100 83 18 0.9 4.3 0.00 0.02 0.01 61 1017.7
20260901215552 83 354 0.0 0.9 0.00 0.02 0.01 66 1017.7
20260901215057 82 354 0.0 5.2 0.00 0.02 0.01 65 1017.7
20260901214551 82 354 0.9 5.2 0.00 0.02 0.01 63 1017.8
20260901214050 82 347 0.0 6.1 0.00 0.02 0.01 62 1017.8
20260901213551 82 306 2.6 6.1 0.00 0.02 0.01 59 1017.8
20260901213107 82 350 0.9 4.3 0.00 0.02 0.01 59 1017.9
20260901212551 82 19 1.7 4.3 0.00 0.02 0.01 58 1017.8
20260901212050 82 9 0.0 4.3 0.00 0.02 0.01 58 1017.8
20260901211553 83 37 0.0 5.2 0.00 0.02 0.01 58 1017.9
20260901211049 83 20 0.9 3.5 0.00 0.02 0.01 58 1018.0
20260901210548 83 246 0.0 3.5 0.00 0.02 0.01 58 1018.0
20260901210048 83 5 0.9 7.8 0.00 0.02 0.01 59 1018.1
20260901205550 83 349 2.6 7.8 0.00 0.02 0.01 58 1018.2
20260901205049 83 22 1.7 6.1 0.00 0.02 0.01 55 1018.1
20260901204548 84 4 0.0 4.3 0.00 0.02 0.01 57 1018.1
20260901204051 84 347 0.0 3.5 0.00 0.02 0.01 59 1018.1
20260901203547 83 231 0.0 3.5 0.00 0.02 0.01 59 1018.2
20260901203058 84 350 0.0 3.5 0.00 0.02 0.01 59 1018.1
20260901202545 84 20 0.0 4.3 0.00 0.02 0.01 58 1018.0
20260901202044 84 327 0.9 4.3 0.00 0.02 0.01 56 1018.2
20260901201545 84 225 0.9 3.5 0.00 0.02 0.01 56 1018.2
20260901201044 83 341 0.0 4.3 0.00 0.02 0.01 58 1018.2
20260901200543 83 11 1.7 5.2 0.00 0.02 0.01 56 1018.3
20260901200051 83 356 0.0 5.2 0.00 0.02 0.01 56 1018.3
20260901195547 84 340 1.7 5.2 0.00 0.02 0.01 55 1018.3
20260901195042 83 26 0.0 3.5 0.00 0.02 0.01 57 1018.4